User: anonymous   Login
Location: Vancouver
(49.2500°N, 123.1330°W)
Time: 23:24:19
(UTC-08:00)
Language:

Iridium 35 - Orbit

View from above orbital plane
View from above orbital plane
View from above satellite
View from above satellite

Ground track
Ground track

The orbit data is extracted from the following two-line orbital elements,

1 24966U 97056B   14332.30685232  .00000345  00000-0  11625-3 0   874
2 24966 086.3952 348.2267 0002229 108.0360 252.1079 14.34219591898962
Epoch (UTC): 28 November 2014 07:21:52
Eccentricity: 0.0002229
inclination: 86.3952°
perigee height: 776 km
apogee height: 779 km
right ascension of ascending node: 348.2267°
argument of perigee: 108.0360°
revolutions per day: 14.34219591
mean anomaly at epoch: 252.1079°
orbit number at epoch: 89896

The dashed part of the orbit path shows where the satellite is in the earth's shadow,  

DLR